Curtin Springs, Northern Territory

6:03 PM ACST on August 28, 2015 (GMT +0930)
Ayers Rock (Connellan) | | Change Station
CLOSE
Current Station
Airport
Location: Ayers Rock,
Elevation: 1627 ft
Nearby Weather Stations

Elev 1627 ft 25.19 °S, 130.98 °E | Updated 33 minutes ago

Clear
Clear
68 °F
Feels Like 68 °F
N
12
Wind Variable Wind from East

Today
High -- | Low -- °F
--% Chance of Precip.
Yesterday
High -- | Low -- °F
Precip. -- in
6:59 AM 6:29 PM
Waxing Gibbous, 97% visible
Pressure 30.12 in
Visibility 6.2 miles
Clouds
Dew Point 36 °F
Humidity 30%
Rainfall 0.00 in
Snow Depth Not available.
UV Not available.
Pollen Not available.
Air Quality Not available.
Flu Activity Not available.
METAR YAYE 280800Z AUTO 09010KT 9999 // NCD 20/02 Q1020
Pressure 30.12 in
Visibility 6.2 miles
Clouds
Dew Point 36 °F
Humidity 30%
Rainfall 0.00 in
Snow Depth Not available.
UV Not available.
Pollen Not available.
Air Quality Not available.
Flu Activity Not available.
METAR YAYE 280800Z AUTO 09010KT 9999 // NCD 20/02 Q1020

10-Day Weather Forecast

×

Almanac

Astronomy

Aug. 28, 2015 Rise Set
Actual Time
Civil Twilight
Nautical Twilight
Astronomical Twilight
Moon
Length of Visible Light
Length of Day
Tomorrow will be .
, % of the Moon is Illuminated

Today's Extremes

Country Highs Country Lows

Community

WunderPhotos

Upload Photos

1,850,348 photos uploaded!

WunderBlogs® & News

Nearby

Air Quality

  Air Quality AQ Index Pollutant
Not available.

Snow Depth

Station Depth Elevation

Earthquake Activity

City Distance Mag. Time & Date
Minimum magnitude displayed is 2.5.

Coastal Water Temperatures

Place Temperature

Stations

Nearby Weather Stations

Station Location Temp. Windchill Dew Point Humidity Wind Precip. Elev Updated Type